Location: Sungai Bunut
(2.6333°N, 113.7333°E)
Time: 15:20:45
(UTC+00:00)

Altair - Pass Details

Date: 12 December 2023
Orbit: 1501 x 1682 km, 47.2° (Epoch: 24 February)

Event Time Altitude Azimuth Distance (km) Brightness Sun altitude
Rises 19:35:21 0° 220° (SW) 4,926 10.1 -38.3°
Enters shadow 19:37:26 - 220° (SW) 4,276 9.7 -37.8°
Reaches altitude 10° 19:38:31 10° 220° (SW) 3,941 - -37.6°
Exits shadow 19:45:49 54° 222° (SW) 1,970 7.8 -35.9°
Maximum altitude 19:48:43 88° 309° (NW) 1,676 7.4 -35.3°
Drops below altitude 10° 19:58:45 10° 39° (NE) 3,877 9.7 -33.0°
Sets 20:01:50 0° 39° (NE) 4,842 10.3 -32.4°
